Location: Unspecified
(35.6961°N, 0.0000°E)
Time: 04:02:12
(UTC+00:00)

Altair - Pass Details

Date: 20 May 2019
Orbit: 1501 x 1683 km, 47.2° (Epoch: 23 June)

Event Time Altitude Azimuth Distance (km) Brightness Sun altitude
Rises 02:25:40 0° 196° (SSW) 4,864 - -24.1°
Reaches altitude 10° 02:29:14 10° 186° (S) 3,899 - -23.7°
Exits shadow 02:32:05 19° 174° (S) 3,237 8.8 -23.3°
Maximum altitude 02:37:41 32° 128° (SE) 2,600 8.7 -22.6°
Drops below altitude 10° 02:46:11 10° 71° (ENE) 3,945 10.5 -21.4°
Sets 02:49:48 0° 62° (ENE) 4,928 11.5 -20.9°
